Showing default

SUPERVIEW-1 03, 43099

Orbit data source: Space-Track

SUPERVIEW-1 03, 43099 is a payload satellite owned by Beijing HSJ (CN) in SSO that was launched on Tue, 09 Jan 2018 UTC via a CHANG ZHENG 2D launch vehicle from the Taiyaun Space Center, China (TSC). Payload-class satellites include a variety of spacecraft equipped with specific instruments for various scientific and technological missions. These include communications satellites like Starlink; space stations such as the ISS; scientific satellites like the Hubble; Earth observation satellites from companies like Planet Labs, Umbra, and HawkEye 360; GPS; miniature CubeSats for education and research; and military/defense satellites.

Loading next visibility...
Identifier
43099, 2018-002A
Orbit
SSO
Country
Flag of CNCN / PRC
Related business
Manufacturer
DFH
Mission
Operational Commercial Imaging
Bus & Motor
CAST3000B, Unknown motor
Mass
~600 kg wet, ~560 kg dry
Launch date (UTC)
2018-01-09 (8 years ago)
Launch vehicle
CHANG ZHENG 2D
Launch site
Taiyaun Space Center, China (TSC)
Object type
Payload
Rocket body
Debris
Shape & HBR
Box + 2 Pan, 2.0 m
Radar Cross Section
5.141 m², Large (>1 m²)

Expand to show TLE details & history
Last TLE update: 22 hours ago

TLE from 22 hours ago
0 SUPERVIEW-1 03
1 43099U 18002A   26172.52121163  .00017506  00000-0  43213-3 0  9990
2 43099  97.3129 257.3522 0047405 164.1426 196.1317 15.39388750469037
Epoch: 2026-06-21T12:30Z
TLE epoch observation values (Epoch: 2026-06-21T12:30:32.684Z)
Latitude
-0.00009°
Longitude
159.99574°
Altitude
482.139 km
Speed
7.607 km/s
True Right ascension
17h 09m 24s
True Declination
0° 00' 00"
Sunlit
Object was in full shadow at epoch
Visualization orbit readout
Latitude
Unknown
Longitude
Unknown
Altitude
Unknown
Speed
Unknown
Apparent Right ascension
Unknown
Apparent Declination
Unknown
Sunlit
N/A
Visualization observer readout
Local Sidereal Time
21:39:00
Azimuth
Unknown
Elevation
Unknown
Doppler factor
Unknown
Orbital elements
Apogee altitude
477.196 km
Perigee altitude
412.507 km
Semi-major axis
6,822.989 km
Eccentricity
0.00474
Inclination
97.3129°
RAAN
257.3522°
Arg. of periapsis
164.1426°
True anomaly
195.98162°
Mean anomaly
196.1317°
Eccentric anomaly
196.05658°
Mean motion
3.85107 °/min
Orbital period
93.48 mins
BSTAR
0.00043213
Loading maneuver chart data...
Computing Atmospheric mass density...
Loading historical data...
Loading historical data...
Loading historical data...
Loading historical data...
Loading historical data...
Loading historical data...
Loading historical data...

Documentation

Showing up to 5 results
|